Startseite
Über Mich
AHP4
Galerie
Sehschlangen
Tourenbuch
Bookmarks
Elektronik
Bewertung
Geschichten
[Tagesmessung] [Jahreswerte] [Information]

Messwerte vom 06.04.2022

Die letzten Messwerte von 23:58:46 Uhr:
KategorieMesswert
Temperatur [°C]9
Luftdruck [mBar]979
Sonneneinstrahlung0
Wind [km/h]5 aus Süd
Niederschlag [l/m²]0
rel.Luftfeucht.76.1%
CO2 [ppm]671

Diagramme
Messwerte vom 06.04.2022
Tagesaggregation
KategorieMinimumMaximumSchnittSumme
Temperatur [°C]8139.7667
Luftdruck [mBar]979987983.2896
Sonneneinstrahlung237102.9146
Wind [km/h]31
rF [%]62.896.682.88
Niederschlag [l/m²]0
CO2 [ppm]404741612.8
Einordnung alsVegetationstag

Messungen an benachbarten Tagen: Zur Jahresaggregation 2022
Tabelle aller Messwerte
UhrzeitTemperatur [°C]Luftdruck [mBar]SonneWind [km/h]RichtungRegen [l/m²]rF [%]CO2 [ppm]
00:01:49 9 987 0 5 SW 0 96.6 709
00:04:45 9 987 0 4 NW 0 96.6 715
00:07:49 9 986 0 5 SW 0 96.6 721
00:10:47 9 986 0 8 SW 0 96.6 724
00:13:48 9 985 0 8 NW 0 96.6 729
00:16:46 9 986 0 6 W 0 96.6 731
00:19:50 9 986 0 0 O 0 96.6 730
00:22:47 9 986 0 2 W 0 96.6 724
00:25:51 9 985 0 2 NW 0 96.6 731
00:28:46 9 985 0 3 W 0 96.6 738
00:31:45 9 986 0 0 W 0 96.6 741
00:34:48 9 986 0 0 W 0 96.6 734
00:37:47 9 986 0 3 O 0 96.6 729
00:40:49 9 985 0 1 SO 0 96.6 730
00:43:48 9 986 0 6 SW 0 96.6 730
00:46:48 9 986 0 0 W 0 96.6 730
00:49:48 9 986 0 3 SW 0 96.6 723
00:52:49 9 985 0 1 NO 0 96.6 717
00:55:48 9 985 0 2 S 0 96.6 727
00:58:46 9 986 0 2 S 0 96.6 724
01:01:47 9 986 0 5 SW 0 96.6 721
01:04:48 9 986 0 2 NW 0 96.6 718
01:07:47 9 986 0 2 NW 0 96.6 715
01:10:45 9 985 0 2 S 0 96.6 718
01:13:46 9 987 0 3 S 0 96.6 715
01:16:47 9 986 0 2 S 0 96.6 715
01:19:48 9 986 0 5 NW 0 96.6 709
01:22:48 9 986 0 5 SW 0 96.6 715
01:25:45 9 986 0 13 N 0 96.6 717
01:28:46 9 986 0 5 W 0 96.6 715
01:31:47 9 985 0 14 NW 0 96.6 712
01:34:46 8 985 0 8 SW 0 96.6 706
01:37:48 8 986 0 4 SW 0 96.6 713
01:40:46 8 986 0 10 NW 0 96.6 717
01:43:49 8 986 0 4 NW 0 96.6 715
01:46:49 8 985 0 17 NW 0 96.6 706
01:49:49 8 986 0 2 S 0 96.6 691
01:52:46 8 986 0 5 N 0 96.6 681
01:55:48 8 985 0 14 SW 0 96.6 683
01:58:46 8 985 0 5 W 0 96.6 685
02:01:51 8 985 0 11 NW 0 96.6 689
02:04:47 8 985 0 11 W 0 96.6 700
02:07:46 8 986 0 17 S 0 96.6 704
02:10:47 8 986 0 3 NO 0 96.6 703
02:13:48 8 985 0 9 SW 0 96.6 706
02:16:49 8 986 0 8 W 0 96.6 701
02:19:47 8 985 0 3 W 0 96.6 697
02:22:47 8 985 0 5 SW 0 96.6 691
02:25:46 8 985 0 8 SW 0 96.6 701
02:28:49 8 984 0 10 SW 0 96.6 706
02:31:48 8 985 0 10 SW 0 96.6 715
02:34:48 8 984 0 3 W 0 96.6 708
02:37:46 8 985 0 1 W 0 96.6 702
02:40:47 8 985 0 5 SW 0 96.6 692
02:43:48 8 985 0 1 SW 0 96.6 701
02:46:48 8 985 0 1 SW 0 96.6 697
02:49:46 8 984 0 2 O 0 96.6 695
02:52:46 8 985 0 1 O 0 96.6 701
02:55:47 8 985 0 4 SO 0 96.6 707
02:58:48 8 985 0 3 S 0 96.6 707
03:01:47 8 985 0 6 SW 0 96.6 709
03:04:46 8 985 0 0 NW 0 96.6 715
03:07:47 8 985 0 5 SO 0 96.6 707
03:10:46 8 985 0 2 O 0 96.6 703
03:13:46 8 985 0 4 S 0 96.6 703
03:16:47 8 985 0 12 SW 0 96.6 708
03:19:48 8 986 0 4 O 0 96.6 705
03:22:47 8 986 0 3 SW 0 96.6 705
03:25:46 8 985 0 6 W 0 96.6 702
03:28:47 8 985 0 2 NO 0 96.6 703
03:31:47 8 986 0 6 S 0 96.6 704
03:34:47 8 985 0 2 SW 0 96.6 710
03:37:46 8 985 0 5 W 0 96.6 707
03:40:45 8 985 0 6 W 0 96.6 712
03:43:47 8 985 0 4 NW 0 96.6 703
03:46:48 8 985 0 8 SO 0 96.6 704
03:49:46 8 984 0 7 SW 0 96.6 700
03:52:46 8 985 0 4 S 0 96.6 704
03:55:47 8 984 0 12 SW 0 96.6 708
03:58:47 8 985 0 8 S 0 96.6 713
04:01:48 8 985 0 5 SW 0 96.6 700
04:04:49 8 985 0 6 SW 0 96.6 697
04:07:47 8 985 0 6 SW 0 96.6 693
04:10:48 8 985 0 12 SW 0 96.6 692
04:13:49 8 985 0 4 W 0 96.6 686
04:16:47 8 985 0 6 SW 0 96.6 680
04:19:45 8 985 0 4 W 0 96.6 677
04:22:47 8 985 0 2 SW 0 96.6 676
04:25:47 8 985 0 4 NO 0 96.6 681
04:28:46 8 985 0 2 S 0 96.6 680
04:31:47 8 985 0 6 S 0 96.6 679
04:34:48 8 985 0 0 NW 0 96.6 677
04:37:48 8 985 0 6 SW 0 96.6 685
04:40:48 8 985 0 9 W 0 96.6 685
04:43:45 8 985 0 4 W 0 96.6 685
04:46:48 8 984 0 2 NW 0 96.6 688
04:49:47 8 985 0 7 O 0 96.6 694
04:52:47 8 984 0 1 W 0 96.6 692
04:55:46 8 984 0 2 NW 0 96.6 693
04:58:44 8 985 0 4 S 0 96.6 694
05:01:49 8 985 0 4 S 0 96.6 685
05:04:50 8 985 0 2 SO 0 96.6 691
05:07:48 8 984 0 2 W 0 96.6 689
05:10:50 8 984 0 6 SO 0 96.6 685
05:13:49 8 984 0 2 W 0 96.6 682
05:16:49 8 985 0 3 SW 0 96.6 691
05:19:46 8 984 0 1 W 0 96.6 687
05:22:49 8 984 0 6 SW 0 96.6 691
05:25:46 8 984 0 4 W 0 96.6 691
05:28:46 8 984 0 7 S 0 96.6 686
05:31:48 8 985 0 4 SO 0 96.6 689
05:34:44 8 984 0 7 S 0 96.6 697
05:37:48 8 984 0 2 SW 0 96.6 692
05:40:45 8 984 0 2 S 0 96.6 700
05:43:46 8 984 0 4 O 0 96.6 697
05:46:46 8 984 0 0 O 0 96.6 692
05:49:45 8 984 0 2 O 0 96.6 697
05:52:47 8 984 0 5 SW 0 96.6 693
05:55:47 8 984 0 2 SW 0 96.6 685
05:58:47 8 984 0 5 SO 0 96.6 685
06:01:47 8 984 0 6 SO 0 96.6 683
06:04:47 8 984 0 4 S 0 96.6 686
06:07:50 8 984 0 0 SW 0 96.6 697
06:10:47 8 984 0 2 S 0 96.6 697
06:13:47 8 984 0 3 SW 0 96.6 700
06:16:46 8 984 0 7 SO 0 96.6 697
06:19:47 8 984 0 10 W 0 96.6 700
06:22:48 9 984 0 2 S 0 96.6 700
06:25:47 9 984 0 8 SO 0 96.6 704
06:28:46 9 984 4 4 SO 0 96.6 687
06:31:48 9 984 6 7 SO 0 96.6 689
06:34:44 8 984 9 2 W 0 96.6 697
06:37:48 9 984 14 5 S 0 96.6 706
06:40:50 9 984 22 3 SO 0 96.6 697
06:43:49 9 984 27 7 SW 0 96.6 697
06:46:48 9 984 42 3 S 0 96.6 700
06:49:47 9 984 51 2 SO 0 96.6 700
06:52:47 9 984 59 5 S 0 96.6 709
06:55:47 9 984 73 3 SO 0 96.6 706
06:58:48 9 984 80 1 S 0 96.6 717
07:01:48 9 984 88 4 SW 0 96.6 709
07:04:47 9 984 98 8 0 96.6 695
07:07:50 9 984 103 6 SW 0 96.6 685
07:10:47 9 984 110 1 SW 0 96.6 683
07:13:46 9 984 133 2 SW 0 96.6 680
07:16:46 9 984 135 4 S 0 96.6 674
07:19:48 9 984 138 4 S 0 96.6 668
07:22:48 9 984 153 3 W 0 96.6 677
07:25:47 9 985 152 4 SW 0 96.6 695
07:28:47 9 984 135 4 S 0 96.6 712
07:31:49 9 984 122 4 W 0 96.6 730
07:34:48 9 984 116 4 O 0 96.6 731
07:37:47 9 984 112 3 S 0 96.6 733
07:40:48 9 984 108 1 S 0 96.6 718
07:43:47 9 984 64 0 S 0 96.6 404
07:46:47 9 984 134 0 W 0 96.6 404
07:49:48 9 984 144 2 O 0 96.6 407
07:52:47 9 986 152 5 SO 0 96.6 454
07:55:47 9 985 152 6 W 0 96.5 492
07:58:46 9 984 160 2 S 0 96.2 477
08:01:51 9 984 163 6 SW 0 96 458
08:04:49 9 984 161 7 SW 0 95.9 460
08:07:46 9 985 161 1 W 0 95.8 460
08:10:48 9 985 153 4 S 0 95.1 463
08:13:48 9 984 149 1 SO 0 95.1 459
08:16:47 9 984 144 1 S 0 94.9 459
08:19:49 9 984 155 4 SW 0 95 463
08:22:48 9 985 150 10 SW 0 95.1 469
08:25:48 9 984 164 3 SW 0 94.7 466
08:28:48 9 984 172 4 S 0 94.5 464
08:31:49 9 984 168 1 SO 0 94.6 471
08:34:48 9 984 159 2 SW 0 94.4 477
08:37:48 9 984 154 2 NW 0 94.3 480
08:40:48 9 984 171 2 SW 0 94.3 484
08:43:50 9 984 177 7 SW 0 94.4 495
08:46:51 9 985 183 2 SW 0 94.2 498
08:49:48 9 984 194 4 S 0 94.2 501
08:52:48 9 984 200 2 S 0 93.6 493
08:55:49 9 984 196 10 SW 0 93 495
08:58:50 9 984 187 9 S 0 91.8 498
09:01:50 9 985 183 6 S 0 92 498
09:04:49 9 984 189 2 SO 0 92.1 503
09:07:48 9 984 179 7 SW 0 92.2 504
09:10:49 9 985 173 4 SW 0 91.4 509
09:13:49 9 985 181 11 SW 0 91.3 509
09:16:48 9 984 173 6 SO 0 91.5 510
09:19:50 9 984 175 5 S 0 92 513
09:22:47 9 984 168 2 S 0 92.1 524
09:25:50 9 984 189 2 SW 0 91.8 527
09:28:48 9 984 202 3 W 0 92.1 536
09:31:50 9 984 202 7 SW 0 92 533
09:34:49 10 984 202 5 W 0 91.7 536
09:37:47 10 984 202 4 W 0 91.1 536
09:40:47 10 984 197 10 SO 0 90.5 544
09:43:48 10 984 205 5 SO 0 89.5 553
09:46:48 10 984 209 12 S 0 89.7 559
09:49:47 10 984 204 4 NO 0 89.2 557
09:52:47 10 984 205 6 S 0 89.6 553
09:55:48 10 984 198 2 0 89.2 549
09:58:48 10 984 198 3 S 0 89.4 550
10:01:47 10 984 209 15 S 0 89.2 551
10:04:46 10 985 216 5 O 0 89.1 550
10:07:48 10 984 210 5 O 0 87.4 554
10:10:50 10 984 206 7 SW 0 86.9 554
10:13:49 10 985 209 7 SW 0 86.6 556
10:16:49 10 984 217 2 NW 0 86.8 562
10:19:49 10 984 217 4 S 0 86.8 568
10:22:49 10 984 219 14 SW 0 85.9 565
10:25:50 11 984 219 4 SW 0 84.5 565
10:28:53 11 984 216 5 W 0 85 571
10:31:49 11 984 220 6 S 0 83.9 568
10:34:51 11 984 220 19 SW 0 83.6 577
10:37:54 11 984 217 3 SW 0 83 580
10:40:52 11 984 217 2 SW 0 83.2 591
10:43:59 11 984 208 7 NO 0 81.2 588
10:46:48 11 984 204 6 W 0 78.8 589
10:49:47 11 984 198 3 SO 0 77.6 579
10:52:47 11 984 222 18 S 0 78.2 580
10:55:48 11 984 223 9 S 0 76.9 583
10:58:47 11 984 222 3 S 0 77 585
11:01:47 11 984 223 3 W 0 77.1 586
11:04:46 11 984 222 3 O 0 75.3 588
11:07:48 11 984 211 2 W 0 74.2 586
11:10:47 11 984 205 9 NO 0 74.4 578
11:13:47 11 984 197 11 W 0 74.2 576
11:16:47 11 984 198 1 SO 0 75.2 580
11:19:46 11 984 200 5 S 0 75.2 583
11:22:48 10 984 205 2 SW 0 75.2 581
11:25:50 10 984 205 10 S 0 75.1 583
11:28:47 10 985 206 5 W 0 74.5 586
11:31:51 10 984 215 6 SO 0 74.7 590
11:34:50 10 984 222 12 NW 0 74.9 586
11:37:49 11 984 218 3 NW 0 75.5 592
11:40:52 11 984 217 5 SW 0 73.4 589
11:43:46 11 984 214 7 S 0 72.2 589
11:46:47 11 985 218 2 S 0 71.2 583
11:49:47 11 984 214 5 S 0 71 583
11:52:48 11 984 217 3 S 0 71.5 583
11:55:47 11 984 213 10 S 0 71.8 589
11:58:47 11 984 214 10 W 0 70.5 597
12:01:50 11 984 215 4 SO 0 70.3 592
12:04:47 11 984 217 7 SW 0 71.1 586
12:07:49 11 984 225 5 W 0 70.9 586
12:10:48 11 984 226 4 SO 0 71.6 594
12:13:48 11 985 224 4 SO 0 70.9 541
12:16:49 11 984 221 12 W 0 67.9 470
12:19:48 11 984 220 13 SO 0 68.1 492
12:22:48 11 984 219 4 O 0 69.2 524
12:25:48 11 984 217 5 O 0 69.5 533
12:28:48 11 984 214 11 S 0 68.6 541
12:31:51 11 984 212 6 S 0 69 558
12:34:47 11 984 214 3 NO 0 71 542
12:37:49 11 984 217 9 S 0 70.9 544
12:40:47 11 984 209 3 NO 0 71 539
12:43:51 11 984 212 6 SO 0 70.9 539
12:46:46 11 984 211 0 S 0 70.6 541
12:49:51 11 984 212 4 SO 0 70.8 536
12:52:48 11 984 214 2 NW 0 71.2 536
12:55:47 11 984 208 7 S 0 71.9 536
12:58:47 11 984 204 2 W 0 70.7 524
13:01:48 11 984 206 4 W 0 71.2 524
13:04:49 11 984 208 3 S 0 72.2 519
13:07:49 11 984 210 4 SO 0 72.3 531
13:10:49 11 984 212 26 W 0 71.3 542
13:13:49 11 984 211 10 SO 0 71.6 543
13:16:46 11 984 213 3 NO 0 71.7 545
13:19:48 11 984 215 4 SW 0 72.2 551
13:22:47 11 984 213 1 NW 0 73.4 553
13:25:48 11 984 215 1 S 0 73.2 548
13:28:47 11 984 215 7 S 0 71.9 557
13:31:49 11 984 217 24 SO 0 70.9 560
13:34:50 11 984 211 10 SW 0 72.9 564
13:37:46 11 984 211 8 W 0 72.6 562
13:40:51 11 984 211 5 SW 0 71.5 567
13:43:46 11 983 209 9 O 0 71.6 500
13:46:49 11 984 205 31 SW 0 71.4 492
13:49:46 10 984 206 4 O 0 72 492
13:52:46 10 984 209 4 O 0 72.7 486
13:55:48 11 984 215 10 W 0 73.1 489
13:58:50 11 984 213 10 SW 0 72.9 486
14:01:52 11 984 225 4 S 0 73.4 489
14:04:47 11 984 226 5 W 0 73.1 495
14:07:48 11 984 219 8 N 0 72 502
14:10:48 12 984 225 9 SW 0 70.8 509
14:13:47 12 984 227 9 SW 0 70.1 509
14:16:46 12 984 225 3 S 0 69.4 507
14:19:47 12 984 224 5 S 0 70.4 507
14:22:50 12 984 219 3 SO 0 69.7 506
14:25:47 12 984 214 2 NO 0 69.5 504
14:28:49 12 984 210 9 SO 0 69.3 512
14:31:48 11 984 204 6 N 0 70.5 522
14:34:51 11 984 209 8 SW 0 70.6 527
14:37:48 11 984 206 7 S 0 70.6 525
14:40:50 11 984 206 18 W 0 70.7 534
14:43:47 11 984 210 6 N 0 71.3 536
14:46:47 11 984 219 2 SW 0 72 548
14:49:49 11 983 221 3 SO 0 71.4 551
14:52:46 11 984 220 3 SW 0 71.1 556
14:55:46 12 984 229 4 S 0 70.9 542
14:58:50 12 984 235 8 SO 0 69.2 551
15:01:51 12 983 236 3 SW 0 68 557
15:04:47 12 984 236 10 O 0 66.8 565
15:07:47 13 984 235 5 S 0 65.6 563
15:10:47 13 983 234 5 S 0 65.1 565
15:13:49 13 984 234 6 NW 0 64 557
15:16:48 13 984 235 8 SW 0 64.6 549
15:19:50 13 984 232 7 NW 0 64.8 547
15:22:48 13 983 227 11 SW 0 64.4 548
15:25:46 12 983 224 5 N 0 65.5 557
15:28:47 12 983 225 3 S 0 66.2 560
15:31:47 12 984 233 7 S 0 66.8 557
15:34:48 12 984 224 5 S 0 67.2 548
15:37:46 12 984 223 5 S 0 67.4 551
15:40:50 12 984 222 4 SO 0 67.2 551
15:43:47 12 984 224 8 S 0 67.5 551
15:46:46 12 983 219 11 S 0 67.3 563
15:49:48 12 983 221 11 W 0 67.3 563
15:52:46 12 984 228 7 S 0 67.5 560
15:55:49 12 983 237 8 SW 0 67.2 563
15:58:49 12 984 233 3 SO 0 66.6 571
16:01:49 12 983 235 10 SW 0 65.6 577
16:04:48 13 983 232 4 O 0 64.7 582
16:07:48 13 983 230 5 S 0 65.2 584
16:10:49 13 983 235 11 NW 0 64.1 586
16:13:49 13 983 226 5 SW 0 63.7 583
16:16:49 13 983 218 5 O 0 63.5 586
16:19:49 12 983 209 6 SW 0 64 591
16:22:48 12 983 210 4 N 0 66 591
16:25:47 12 983 205 6 O 0 66.3 587
16:28:49 12 983 209 8 SO 0 66 594
16:31:46 12 983 204 5 S 0 66 592
16:34:48 12 982 197 3 SO 0 67.5 583
16:37:50 11 983 196 5 W 0 67.8 586
16:40:48 11 983 191 6 S 0 67.6 589
16:43:48 11 983 184 5 W 0 68.2 583
16:46:49 11 983 180 17 SW 0 68.1 578
16:49:50 11 983 186 3 S 0 68.3 575
16:52:51 11 983 178 12 SO 0 68.4 569
16:55:48 11 983 175 6 S 0 68.4 565
16:58:49 11 983 176 8 SO 0 68.9 569
17:01:49 11 983 182 17 SO 0 70.1 563
17:04:50 11 983 179 3 SW 0 68.9 572
17:07:48 11 983 188 6 SW 0 69.4 554
17:10:49 11 982 187 15 S 0 69.8 545
17:13:47 11 983 198 5 O 0 70.1 539
17:16:47 11 983 208 6 W 0 70.2 534
17:19:45 11 983 200 4 O 0 71.3 530
17:22:57 11 982 196 17 SW 0 74.5 527
17:25:31 10 983 191 4 SW 0 62.8 533
17:28:49 10 983 194 3 O 0 78.2 551
17:31:50 10 983 191 6 SO 0 79.3 568
17:34:49 10 983 201 5 SW 0 79.5 572
17:37:48 10 982 193 3 NO 0 78.6 575
17:40:48 10 982 186 5 S 0 78.6 574
17:43:51 10 983 192 6 SW 0 78.9 572
17:46:46 10 982 191 3 S 0 79.3 568
17:49:48 10 982 170 4 SW 0 79.9 566
17:52:46 10 982 165 5 SW 0 80 565
17:55:51 10 983 167 3 S 0 81.2 571
17:58:47 10 981 188 2 O 0 81.4 563
18:01:49 10 982 188 3 SW 0 81.4 575
18:04:50 10 983 196 6 SW 0 79 569
18:07:47 10 982 193 7 S 0 78.7 566
18:10:50 10 982 186 5 NO 0 78.3 560
18:13:48 10 982 187 27 NW 0 78.5 554
18:16:49 10 982 183 4 S 0 78.2 548
18:19:47 10 982 179 4 S 0 78.5 553
18:22:49 10 981 174 8 SW 0 77.9 560
18:25:49 10 982 175 6 SW 0 77.5 563
18:28:49 10 982 181 5 SW 0 77.3 557
18:31:48 10 982 190 1 SO 0 76.8 557
18:34:46 10 981 187 3 S 0 77.1 551
18:37:47 10 982 176 6 SO 0 77 557
18:40:48 10 981 162 4 SW 0 76.4 566
18:43:47 10 981 152 4 S 0 76.7 569
18:46:48 10 981 164 6 S 0 76.7 568
18:49:45 10 981 153 7 S 0 76.8 571
18:52:46 10 981 141 6 S 0 76.7 568
18:55:49 10 982 141 5 SW 0 76.6 560
18:58:48 10 981 139 2 SO 0 76.7 556
19:01:47 10 981 142 2 SO 0 77.1 560
19:04:48 10 981 141 3 W 0 77.5 560
19:07:47 10 980 145 5 SW 0 77.7 565
19:10:49 10 981 140 3 SO 0 78.4 572
19:13:46 10 980 131 3 SW 0 79.3 574
19:16:47 10 981 125 9 S 0 80.1 580
19:19:47 10 981 127 4 SO 0 80 580
19:22:50 10 980 114 5 SO 0 80.3 569
19:25:47 10 980 116 5 W 0 80.3 569
19:28:48 10 981 106 3 SO 0 80.1 566
19:31:46 10 980 95 4 S 0 79.5 569
19:34:46 10 980 93 3 W 0 79 580
19:37:46 10 981 81 9 O 0 78.8 586
19:40:48 10 980 79 5 NW 0 77.9 589
19:43:46 10 980 74 2 S 0 77.6 601
19:46:50 10 980 71 4 SW 0 77.8 601
19:49:47 10 981 54 1 SW 0 78 606
19:52:48 10 981 49 5 SO 0 78 610
19:55:49 10 980 33 1 SW 0 77.5 618
19:58:49 10 981 26 4 W 0 77.2 623
20:01:47 10 981 22 2 SW 0 77 630
20:04:47 10 980 14 4 W 0 76.8 627
20:07:48 10 980 12 3 W 0 76.7 627
20:10:48 10 980 7 3 S 0 76.7 630
20:13:47 10 980 4 3 SW 0 76.7 629
20:16:48 10 981 3 8 S 0 76.2 639
20:19:50 10 980 0 4 SW 0 76 642
20:22:46 10 980 0 3 S 0 75.8 643
20:25:46 10 981 0 5 N 0 75.7 642
20:28:47 10 980 0 3 O 0 76 626
20:31:45 10 981 0 2 S 0 75.8 624
20:34:47 10 981 0 3 SW 0 76 633
20:37:46 10 980 0 5 S 0 75.8 641
20:40:47 10 981 0 6 SO 0 75.7 644
20:43:44 10 981 0 1 SO 0 75.6 644
20:46:47 10 980 0 2 SO 0 75.5 641
20:49:47 10 980 0 2 SW 0 75.5 647
20:52:46 10 980 0 3 SO 0 75.2 641
20:55:46 10 980 0 11 O 0 74.8 651
20:58:45 10 980 0 8 S 0 74.4 659
21:01:48 10 980 0 6 S 0 73.9 666
21:04:48 10 981 0 8 S 0 74 656
21:07:46 10 980 0 11 O 0 74 650
21:10:48 10 980 0 10 W 0 73.8 659
21:13:47 10 980 0 16 SW 0 73.4 653
21:16:47 10 980 0 7 S 0 73.3 653
21:19:47 10 980 0 3 W 0 73.3 646
21:22:49 10 980 0 2 SW 0 73.2 650
21:25:49 10 980 0 7 SW 0 73.2 647
21:28:46 10 981 0 10 SO 0 72.9 647
21:31:49 10 980 0 6 SW 0 72.2 645
21:34:46 10 980 0 10 S 0 72.5 641
21:37:48 10 980 0 9 NW 0 71.8 642
21:40:47 10 980 0 13 SW 0 72 641
21:43:48 10 980 0 3 S 0 72 645
21:46:45 10 980 0 5 S 0 72.3 648
21:49:46 10 980 0 4 S 0 72.7 655
21:52:46 10 980 0 15 O 0 72.5 647
21:55:47 10 980 0 5 W 0 72.8 649
21:58:46 10 980 0 8 S 0 72.4 644
22:01:47 10 980 0 4 S 0 72.5 647
22:04:46 10 980 0 13 S 0 72.5 615
22:07:50 10 980 0 6 SW 0 72.5 628
22:10:49 10 980 0 4 SW 0 73 630
22:13:47 10 980 0 5 S 0 73.1 637
22:16:47 10 980 0 7 SW 0 73.5 637
22:19:47 10 980 0 5 S 0 73.5 639
22:22:46 10 980 0 7 W 0 73.5 647
22:25:45 10 980 0 10 S 0 73.7 645
22:28:47 10 980 0 6 SW 0 74.2 639
22:31:49 10 980 0 12 SO 0 74.1 630
22:34:45 10 980 0 5 S 0 73.8 635
22:37:47 10 980 0 5 SO 0 74.1 632
22:40:46 10 980 0 11 W 0 73.8 633
22:43:47 10 980 0 6 S 0 73.5 633
22:46:49 10 980 0 7 S 0 73.3 633
22:49:47 10 980 0 8 W 0 73.1 633
22:52:48 10 980 0 5 S 0 73 630
22:55:46 10 980 0 4 SW 0 72.8 627
22:58:48 10 980 0 4 SW 0 72.7 627
23:01:47 10 980 0 4 S 0 72.7 630
23:04:46 10 980 0 5 S 0 72.7 640
23:07:47 10 980 0 9 SW 0 72.6 639
23:10:47 10 980 0 8 SO 0 72.7 640
23:13:46 10 980 0 12 S 0 72.8 631
23:16:49 10 980 0 8 SW 0 73.2 642
23:19:50 10 980 0 9 SO 0 73 649
23:22:49 10 980 0 15 SW 0 72.8 645
23:25:48 10 980 0 6 W 0 72.9 638
23:28:47 10 980 0 3 S 0 73.3 630
23:31:47 10 980 0 3 O 0 73.5 633
23:34:45 9 980 0 5 S 0 73.7 636
23:37:49 9 980 0 3 S 0 73.8 646
23:40:48 9 980 0 9 NW 0 74.4 651
23:43:49 9 979 0 6 NW 0 75 652
23:46:48 9 980 0 4 O 0 75.1 662
23:49:45 9 980 0 4 S 0 75.1 664
23:52:47 9 980 0 10 O 0 75.4 671
23:55:48 9 980 0 4 SW 0 75.6 663
23:58:46 9 979 0 5 S 0 76.1 671

Letzte Änderung : 04-Jan-2022
Copyright Jens Köhler, Wolfsburg, Obere Dorfstraße 10d